EDT,Max TemperatureF,Mean TemperatureF,Min TemperatureF,Max Dew PointF,MeanDew PointF,Min DewpointF,Max Humidity, Mean Humidity, Min Humidity, Max Sea Level PressureIn, Mean Sea Level PressureIn, Min Sea Level PressureIn, Max VisibilityMiles, Mean VisibilityMiles, Min VisibilityMiles, Max Wind SpeedMPH, Mean Wind SpeedMPH, Max Gust SpeedMPH,PrecipitationIn, CloudCover, Events, WindDirDegrees
2013-3-1,59,52,46,36,35,32,66,56,38,30.03,29.97,29.91,10,10,10,14,7,21,0.00,0,,302
2013-3-2,53,42,32,36,31,27,100,71,35,30.05,30.02,29.95,10,10,5,21,6,36,0.00,0,,271
2013-3-3,46,36,26,34,27,25,100,80,46,30.15,30.07,30.02,10,10,10,14,4,20,0.00,1,,275
2013-3-4,64,44,24,37,28,19,100,76,26,30.24,30.17,30.13,10,9,6,15,1,,0.00,0,,342
2013-3-5,75,54,32,59,43,32,100,77,29,30.19,30.06,29.92,10,10,9,21,4,24,0.00,1,,207
2013-3-6,64,52,37,59,37,25,94,64,27,30.16,30.03,29.89,10,10,2,24,14,33,0.05,1,Rain,280
2013-3-7,64,48,32,37,32,28,100,75,32,30.25,30.19,30.15,10,10,6,10,4,,0.00,0,,317
2013-3-8,69,50,32,48,37,30,100,85,28,30.26,30.22,30.16,10,6,2,12,1,,0.00,0,,34
2013-3-9,68,50,33,48,40,32,100,86,37,30.29,30.24,30.20,10,6,0,14,1,,0.00,0,Fog,67
2013-3-10,73,57,41,55,49,41,100,85,44,30.23,30.18,30.14,10,8,3,18,2,23,0.00,0,,88
2013-3-11,75,60,44,57,52,45,100,83,50,30.15,30.04,29.91,10,8,0,14,2,22,0.00,1,Fog-Rain,152
2013-3-12,68,56,44,66,55,43,100,81,45,30.04,29.93,29.85,10,9,2,15,5,,0.00,2,Rain,200
2013-3-13,69,56,44,45,36,30,93,57,24,30.21,30.11,30.04,10,10,10,14,6,,0.00,0,,308
2013-3-14,60,46,32,36,29,25,100,60,27,30.32,30.24,30.19,10,10,10,12,6,21,0.00,0,,327
2013-3-15,73,50,28,41,33,25,100,68,25,30.30,30.22,30.13,10,10,7,10,2,,0.00,0,,237
2013-3-16,78,58,37,50,43,36,100,67,32,30.18,30.12,30.01,10,10,7,14,6,,0.00,0,,227
2013-3-17,75,57,39,54,45,37,100,72,29,30.14,30.07,30.01,10,10,8,12,4,,0.00,0,,208
2013-3-18,78,68,57,63,58,52,100,83,51,30.07,29.99,29.88,10,10,4,16,2,23,0.00,3,Rain,205
2013-3-19,78,66,55,64,58,55,100,82,44,30.03,29.97,29.90,10,10,3,15,4,39,0.00,3,Rain,299
2013-3-20,66,56,46,55,52,46,100,89,56,30.03,29.96,29.87,10,7,0,21,1,,0.00,4,Fog-Rain,15
2013-3-21,66,50,35,46,36,25,100,76,21,29.98,29.92,29.88,10,9,0,17,2,,0.00,1,Fog,287
2013-3-22,66,52,37,46,39,28,93,73,32,30.07,30.00,29.96,10,10,10,14,2,,0.00,2,,61
2013-3-23,64,54,44,64,53,45,100,97,87,30.02,29.92,29.80,10,7,1,16,2,,0.15,6,Rain-Thunderstorm,104
2013-3-24,84,72,59,72,65,59,100,89,54,29.81,29.66,29.55,10,9,2,23,6,31,0.00,4,Rain-Thunderstorm,196
2013-3-25,66,57,48,61,38,25,88,53,22,30.05,29.85,29.65,10,10,7,24,12,32,0.00,0,,273
2013-3-26,53,43,32,32,27,23,100,55,33,30.27,30.15,30.06,10,10,10,18,9,25,0.00,0,,297
2013-3-27,59,44,28,36,31,27,100,79,31,30.33,30.28,30.23,10,10,10,14,2,,0.00,0,,331
2013-3-28,66,49,32,37,33,27,100,78,23,30.32,30.28,30.22,10,9,5,14,2,,0.00,0,,343
2013-3-29,71,52,33,43,36,32,100,76,23,30.36,30.29,30.21,10,9,4,9,1,,0.00,0,,357
2013-3-30,75,56,37,46,40,36,100,70,25,30.28,30.21,30.12,10,9,4,12,2,,0.00,0,,220
2013-3-31,78,62,46,57,49,41,87,67,42,30.15,30.08,29.99,10,10,10,18,4,28,0.00,1,,197